Time,TemperatureF,DewpointF,PressureIn,WindDirection,WindDirectionDegrees,WindSpeedMPH,WindSpeedGustMPH,Humidity,HourlyPrecipIn,Conditions,Clouds,dailyrainin,SoftwareType,DateUTC
2013-01-07 00:00:00,68.4,67.1,30.12,SSW,195,0.0,0.0,96,0.00,,,0.00,meteohub,2013-01-07 05:00:00,
2013-01-07 00:01:00,68.4,67.1,30.12,SSW,195,0.0,0.0,96,0.00,,,0.00,meteohub,2013-01-07 05:01:00,
2013-01-07 00:06:00,68.5,67.3,30.12,SSW,202,0.0,0.0,96,0.00,,,0.00,meteohub,2013-01-07 05:06:00,
2013-01-07 00:11:00,68.7,67.8,30.12,SSW,202,0.0,1.0,97,0.00,,,0.00,meteohub,2013-01-07 05:11:00,
2013-01-07 00:16:00,69.1,68.2,30.12,WNW,294,0.0,1.0,97,0.00,,,0.00,meteohub,2013-01-07 05:16:00,
2013-01-07 00:21:00,69.1,68.2,30.12,WNW,294,0.0,1.0,97,0.00,,,0.00,meteohub,2013-01-07 05:21:00,
2013-01-07 00:26:00,69.1,68.2,30.12,WNW,294,0.0,1.0,97,0.00,,,0.00,meteohub,2013-01-07 05:26:00,
2013-01-07 00:31:00,69.1,68.2,30.11,WNW,295,0.0,1.0,97,0.00,,,0.00,meteohub,2013-01-07 05:31:00,
2013-01-07 00:36:00,69.1,68.2,30.11,WNW,295,0.0,1.0,97,0.00,,,0.00,meteohub,2013-01-07 05:36:00,
2013-01-07 00:41:00,69.3,68.4,30.11,WNW,299,0.0,1.0,97,0.00,,,0.00,meteohub,2013-01-07 05:41:00,
2013-01-07 00:46:00,69.1,68.2,30.11,NW,308,0.0,1.0,97,0.00,,,0.00,meteohub,2013-01-07 05:46:00,
2013-01-07 00:51:00,69.1,68.2,30.11,NW,308,0.0,2.0,97,0.00,,,0.00,meteohub,2013-01-07 05:51:00,
2013-01-07 00:56:00,69.1,68.2,30.11,NW,308,0.0,2.0,97,0.00,,,0.00,meteohub,2013-01-07 05:56:00,
2013-01-07 01:02:00,69.1,68.2,30.11,NW,308,0.0,2.0,97,0.00,,,0.00,meteohub,2013-01-07 06:02:00,
2013-01-07 01:07:00,68.9,67.6,30.11,NW,308,0.0,0.0,96,0.00,,,0.00,meteohub,2013-01-07 06:07:00,
2013-01-07 01:12:00,68.7,67.5,30.11,NW,308,0.0,0.0,96,0.00,,,0.00,meteohub,2013-01-07 06:12:00,
2013-01-07 01:17:00,68.7,67.5,30.11,NW,308,0.0,0.0,96,0.00,,,0.00,meteohub,2013-01-07 06:17:00,
2013-01-07 01:22:00,68.5,67.3,30.10,NW,308,0.0,0.0,96,0.00,,,0.00,meteohub,2013-01-07 06:22:00,
2013-01-07 01:27:00,68.5,67.6,30.10,NW,308,0.0,0.0,97,0.00,,,0.00,meteohub,2013-01-07 06:27:00,
2013-01-07 01:32:00,68.5,67.6,30.10,NW,308,0.0,0.0,97,0.00,,,0.00,meteohub,2013-01-07 06:32:00,
2013-01-07 01:37:00,68.5,67.6,30.10,NW,308,0.0,1.0,97,0.00,,,0.00,meteohub,2013-01-07 06:37:00,
2013-01-07 01:42:00,68.5,67.6,30.10,NW,308,0.0,1.0,97,0.00,,,0.00,meteohub,2013-01-07 06:42:00,
2013-01-07 01:47:00,68.4,67.5,30.10,NW,308,0.0,1.0,97,0.00,,,0.00,meteohub,2013-01-07 06:47:00,
2013-01-07 01:52:00,68.4,67.5,30.10,NW,308,0.0,1.0,97,0.00,,,0.00,meteohub,2013-01-07 06:52:00,
2013-01-07 01:57:00,68.2,67.3,30.10,NW,308,0.0,0.0,97,0.00,,,0.00,meteohub,2013-01-07 06:57:00,
2013-01-07 02:02:00,68.2,67.3,30.10,NW,311,0.0,0.0,97,0.00,,,0.00,meteohub,2013-01-07 07:02:00,
2013-01-07 02:07:00,68.2,67.3,30.10,NW,311,0.0,0.0,97,0.00,,,0.00,meteohub,2013-01-07 07:07:00,
2013-01-07 02:12:00,68.2,67.3,30.09,NW,311,0.0,0.0,97,0.00,,,0.00,meteohub,2013-01-07 07:12:00,
2013-01-07 02:17:00,68.2,67.3,30.09,NW,311,0.0,0.0,97,0.00,,,0.00,meteohub,2013-01-07 07:17:00,
2013-01-07 02:22:00,68.0,67.1,30.09,NNW,327,0.0,2.0,97,0.00,,,0.00,meteohub,2013-01-07 07:22:00,
2013-01-07 02:27:00,67.8,66.9,30.09,NNW,327,0.0,2.0,97,0.00,,,0.00,meteohub,2013-01-07 07:27:00,
2013-01-07 02:32:00,67.8,66.9,30.09,NNW,327,0.0,2.0,97,0.00,,,0.00,meteohub,2013-01-07 07:32:00,
2013-01-07 02:37:00,67.6,66.7,30.09,NNW,327,0.0,1.0,97,0.00,,,0.00,meteohub,2013-01-07 07:37:00,
2013-01-07 02:42:00,67.6,66.7,30.09,WNW,284,0.0,1.0,97,0.00,,,0.00,meteohub,2013-01-07 07:42:00,
2013-01-07 02:47:00,67.6,66.7,30.09,NW,312,0.0,1.0,97,0.00,,,0.00,meteohub,2013-01-07 07:47:00,
2013-01-07 02:52:00,67.6,66.7,30.09,North,350,0.0,1.0,97,0.00,,,0.00,meteohub,2013-01-07 07:52:00,
2013-01-07 02:57:00,67.6,66.7,30.09,North,350,0.0,1.0,97,0.00,,,0.00,meteohub,2013-01-07 07:57:00,
2013-01-07 03:02:00,67.6,66.7,30.09,North,350,0.0,1.0,97,0.00,,,0.00,meteohub,2013-01-07 08:02:00,
2013-01-07 03:07:00,67.5,66.6,30.09,North,355,0.0,0.0,97,0.00,,,0.00,meteohub,2013-01-07 08:07:00,
2013-01-07 03:12:00,67.5,66.6,30.09,NNW,343,0.0,1.0,97,0.00,,,0.00,meteohub,2013-01-07 08:12:00,
2013-01-07 03:17:00,67.5,66.6,30.09,NNW,343,0.0,1.0,97,0.00,,,0.00,meteohub,2013-01-07 08:17:00,
2013-01-07 03:22:00,67.3,66.4,30.09,NNW,343,0.0,1.0,97,0.00,,,0.00,meteohub,2013-01-07 08:22:00,
2013-01-07 03:27:00,67.3,66.4,30.09,NNW,343,0.0,0.0,97,0.00,,,0.00,meteohub,2013-01-07 08:27:00,
2013-01-07 03:32:00,67.3,66.4,30.09,NNW,343,0.0,0.0,97,0.00,,,0.00,meteohub,2013-01-07 08:32:00,
2013-01-07 03:37:00,67.3,66.4,30.08,NNW,343,0.0,0.0,97,0.00,,,0.00,meteohub,2013-01-07 08:37:00,
2013-01-07 03:42:00,67.3,66.4,30.08,NNW,343,0.0,0.0,97,0.00,,,0.00,meteohub,2013-01-07 08:42:00,
2013-01-07 03:47:00,67.1,66.2,30.09,NNW,343,0.0,0.0,97,0.00,,,0.00,meteohub,2013-01-07 08:47:00,
2013-01-07 03:51:00,67.1,66.2,30.08,NNW,343,0.0,0.0,97,0.00,,,0.00,meteohub,2013-01-07 08:51:00,
2013-01-07 03:57:00,67.1,66.2,30.09,NNW,348,0.0,1.0,97,0.00,,,0.00,meteohub,2013-01-07 08:57:00,
2013-01-07 04:02:00,67.1,66.2,30.08,NNW,348,0.0,2.0,97,0.00,,,0.00,meteohub,2013-01-07 09:02:00,
2013-01-07 04:07:00,67.1,66.2,30.08,NNW,348,0.0,2.0,97,0.00,,,0.00,meteohub,2013-01-07 09:07:00,
2013-01-07 04:12:00,66.9,66.0,30.08,NNW,348,0.0,3.0,97,0.00,,,0.00,meteohub,2013-01-07 09:12:00,
2013-01-07 04:17:00,66.9,66.0,30.08,North,350,0.0,3.0,97,0.00,,,0.00,meteohub,2013-01-07 09:17:00,
2013-01-07 04:22:00,67.1,66.6,30.08,North,349,0.0,3.0,98,0.00,,,0.00,meteohub,2013-01-07 09:22:00,
2013-01-07 04:27:00,67.1,66.2,30.07,North,0,0.0,3.0,97,0.00,,,0.00,meteohub,2013-01-07 09:27:00,
2013-01-07 04:32:00,67.1,66.2,30.07,North,0,0.0,3.0,97,0.00,,,0.00,meteohub,2013-01-07 09:32:00,
2013-01-07 04:37:00,67.1,66.6,30.08,North,0,0.0,3.0,98,0.00,,,0.00,meteohub,2013-01-07 09:37:00,
2013-01-07 04:42:00,66.9,66.0,30.07,North,0,0.0,2.0,97,0.00,,,0.00,meteohub,2013-01-07 09:42:00,
2013-01-07 04:47:00,67.1,66.2,30.08,North,0,0.0,2.0,97,0.00,,,0.00,meteohub,2013-01-07 09:47:00,
2013-01-07 04:52:00,66.9,66.0,30.08,North,0,0.0,2.0,97,0.00,,,0.00,meteohub,2013-01-07 09:52:00,
2013-01-07 04:57:00,66.9,66.0,30.08,NNW,344,1.0,1.0,97,0.00,,,0.00,meteohub,2013-01-07 09:57:00,
2013-01-07 05:02:00,66.9,66.0,30.08,NNW,344,0.0,1.0,97,0.00,,,0.00,meteohub,2013-01-07 10:02:00,
2013-01-07 05:07:00,66.9,66.0,30.09,NNW,344,0.0,1.0,97,0.00,,,0.00,meteohub,2013-01-07 10:07:00,
2013-01-07 05:12:00,66.9,66.0,30.09,NNW,344,0.0,1.0,97,0.00,,,0.00,meteohub,2013-01-07 10:12:00,
2013-01-07 05:17:00,66.7,65.8,30.09,NNW,344,0.0,1.0,97,0.00,,,0.00,meteohub,2013-01-07 10:17:00,
2013-01-07 05:22:00,66.7,65.8,30.09,NNW,344,0.0,1.0,97,0.00,,,0.00,meteohub,2013-01-07 10:22:00,
2013-01-07 05:27:00,66.7,66.2,30.09,NNW,344,0.0,1.0,98,0.00,,,0.00,meteohub,2013-01-07 10:27:00,
2013-01-07 05:32:00,66.9,66.4,30.09,NNW,344,0.0,1.0,98,0.00,,,0.00,meteohub,2013-01-07 10:32:00,
2013-01-07 05:37:00,66.9,66.4,30.09,NNW,344,0.0,1.0,98,0.00,,,0.00,meteohub,2013-01-07 10:37:00,
2013-01-07 05:42:00,67.3,66.7,30.09,NNW,344,0.0,1.0,98,0.00,,,0.00,meteohub,2013-01-07 10:42:00,
2013-01-07 05:47:00,67.3,66.7,30.09,NNW,344,0.0,0.0,98,0.00,,,0.00,meteohub,2013-01-07 10:47:00,
2013-01-07 05:52:00,67.1,66.6,30.09,NNW,344,0.0,0.0,98,0.00,,,0.00,meteohub,2013-01-07 10:52:00,
2013-01-07 05:57:00,67.1,66.2,30.09,NNW,344,0.0,0.0,97,0.00,,,0.00,meteohub,2013-01-07 10:57:00,
2013-01-07 06:02:00,66.9,66.0,30.09,NNW,344,0.0,0.0,97,0.00,,,0.00,meteohub,2013-01-07 11:02:00,
2013-01-07 06:07:00,66.9,66.0,30.09,NNW,344,0.0,0.0,97,0.00,,,0.00,meteohub,2013-01-07 11:07:00,
2013-01-07 06:12:00,66.7,65.8,30.09,NNW,344,0.0,0.0,97,0.00,,,0.00,meteohub,2013-01-07 11:12:00,
2013-01-07 06:17:00,66.7,65.8,30.10,NNW,344,0.0,0.0,97,0.00,,,0.00,meteohub,2013-01-07 11:17:00,
2013-01-07 06:22:00,66.6,65.7,30.09,NNW,344,0.0,0.0,97,0.00,,,0.00,meteohub,2013-01-07 11:22:00,
2013-01-07 06:27:00,66.6,65.7,30.09,NNW,344,0.0,0.0,97,0.00,,,0.00,meteohub,2013-01-07 11:27:00,
2013-01-07 06:32:00,66.4,65.5,30.09,NNW,344,0.0,0.0,97,0.00,,,0.00,meteohub,2013-01-07 11:32:00,
2013-01-07 06:37:00,66.2,65.3,30.10,NNW,344,0.0,0.0,97,0.00,,,0.00,meteohub,2013-01-07 11:37:00,
2013-01-07 06:42:00,66.0,65.1,30.10,NNW,344,0.0,0.0,97,0.00,,,0.00,meteohub,2013-01-07 11:42:00,
2013-01-07 06:47:00,66.0,65.1,30.11,NNW,344,0.0,0.0,97,0.00,,,0.00,meteohub,2013-01-07 11:47:00,
2013-01-07 06:52:00,65.8,64.9,30.11,NNW,344,0.0,0.0,97,0.00,,,0.00,meteohub,2013-01-07 11:52:00,
2013-01-07 06:57:00,65.8,65.3,30.11,NNW,344,0.0,0.0,98,0.00,,,0.00,meteohub,2013-01-07 11:57:00,
2013-01-07 07:02:00,66.0,65.5,30.11,NNW,344,0.0,0.0,98,0.00,,,0.00,meteohub,2013-01-07 12:02:00,
2013-01-07 07:07:00,66.0,65.5,30.11,NNW,344,0.0,1.0,98,0.00,,,0.00,meteohub,2013-01-07 12:07:00,
2013-01-07 07:12:00,66.4,65.8,30.12,NNW,344,0.0,2.0,98,0.00,,,0.00,meteohub,2013-01-07 12:12:00,
2013-01-07 07:17:00,66.4,65.8,30.12,NNW,344,0.0,2.0,98,0.00,,,0.00,meteohub,2013-01-07 12:17:00,
2013-01-07 07:22:00,66.4,65.8,30.12,NNW,345,0.0,2.0,98,0.00,,,0.00,meteohub,2013-01-07 12:22:00,
2013-01-07 07:27:00,66.6,66.0,30.12,NNW,345,0.0,1.0,98,0.00,,,0.00,meteohub,2013-01-07 12:27:00,
2013-01-07 07:32:00,66.6,66.0,30.13,NNW,345,0.0,1.0,98,0.00,,,0.00,meteohub,2013-01-07 12:32:00,
2013-01-07 07:37:00,66.6,66.0,30.13,NNW,345,0.0,1.0,98,0.00,,,0.00,meteohub,2013-01-07 12:37:00,
2013-01-07 07:42:00,66.7,66.2,30.13,NNW,346,0.0,1.0,98,0.00,,,0.00,meteohub,2013-01-07 12:42:00,
2013-01-07 07:47:00,66.7,66.2,30.13,NNW,346,0.0,2.0,98,0.00,,,0.00,meteohub,2013-01-07 12:47:00,
2013-01-07 07:52:00,66.9,66.4,30.14,North,9,0.0,4.0,98,0.00,,,0.00,meteohub,2013-01-07 12:52:00,
2013-01-07 07:57:00,67.1,66.6,30.14,North,10,0.0,4.0,98,0.00,,,0.00,meteohub,2013-01-07 12:57:00,
2013-01-07 08:02:00,67.1,66.6,30.14,North,5,0.0,4.0,98,0.00,,,0.00,meteohub,2013-01-07 13:02:00,
2013-01-07 08:07:00,67.3,66.4,30.14,North,5,0.0,3.0,97,0.00,,,0.00,meteohub,2013-01-07 13:07:00,
2013-01-07 08:12:00,67.3,66.4,30.14,North,11,0.0,3.0,97,0.00,,,0.00,meteohub,2013-01-07 13:12:00,
2013-01-07 08:17:00,67.5,66.6,30.14,NNW,348,2.0,4.0,97,0.00,,,0.00,meteohub,2013-01-07 13:17:00,
2013-01-07 08:22:00,67.6,66.7,30.15,NNE,22,0.0,4.0,97,0.00,,,0.00,meteohub,2013-01-07 13:22:00,
2013-01-07 08:27:00,68.2,67.3,30.15,NE,44,0.0,8.0,97,0.00,,,0.00,meteohub,2013-01-07 13:27:00,
2013-01-07 08:32:00,68.4,67.5,30.15,North,349,1.0,8.0,97,0.00,,,0.00,meteohub,2013-01-07 13:32:00,
2013-01-07 08:37:00,68.5,67.6,30.15,North,349,0.0,8.0,97,0.00,,,0.00,meteohub,2013-01-07 13:37:00,
2013-01-07 08:42:00,68.9,67.6,30.15,NE,45,4.0,6.0,96,0.00,,,0.00,meteohub,2013-01-07 13:42:00,
2013-01-07 08:47:00,69.1,67.8,30.15,North,355,0.0,6.0,96,0.00,,,0.00,meteohub,2013-01-07 13:47:00,
2013-01-07 08:52:00,69.4,68.2,30.15,NNE,32,0.0,6.0,96,0.00,,,0.00,meteohub,2013-01-07 13:52:00,
2013-01-07 08:57:00,69.6,68.4,30.15,NNE,26,0.0,5.0,96,0.00,,,0.00,meteohub,2013-01-07 13:57:00,
2013-01-07 09:02:00,70.0,68.5,30.15,NNW,341,1.0,3.0,95,0.00,,,0.00,meteohub,2013-01-07 14:02:00,
2013-01-07 09:07:00,70.2,68.7,30.15,NNE,17,0.0,4.0,95,0.00,,,0.00,meteohub,2013-01-07 14:07:00,
2013-01-07 09:12:00,70.5,69.1,30.15,North,5,0.0,7.0,95,0.00,,,0.00,meteohub,2013-01-07 14:12:00,
2013-01-07 09:17:00,70.9,69.1,30.16,NNW,342,0.0,7.0,94,0.00,,,0.00,meteohub,2013-01-07 14:17:00,
2013-01-07 09:22:00,71.1,69.3,30.16,North,0,0.0,7.0,94,0.00,,,0.00,meteohub,2013-01-07 14:22:00,
2013-01-07 09:27:00,71.2,69.1,30.16,North,0,0.0,6.0,93,0.00,,,0.00,meteohub,2013-01-07 14:27:00,
2013-01-07 09:32:00,71.6,69.4,30.16,NNW,342,2.0,4.0,93,0.00,,,0.00,meteohub,2013-01-07 14:32:00,
2013-01-07 09:37:00,72.0,69.8,30.16,NNE,16,0.0,3.0,93,0.00,,,0.00,meteohub,2013-01-07 14:37:00,
2013-01-07 09:42:00,72.0,69.4,30.17,North,5,2.0,5.0,92,0.00,,,0.00,meteohub,2013-01-07 14:42:00,
2013-01-07 09:47:00,72.3,69.6,30.17,NNE,25,0.0,5.0,91,0.00,,,0.00,meteohub,2013-01-07 14:47:00,
2013-01-07 09:52:00,72.7,69.6,30.17,NE,49,1.0,5.0,90,0.00,,,0.00,meteohub,2013-01-07 14:52:00,
2013-01-07 09:57:00,73.0,70.0,30.17,NE,46,0.0,5.0,90,0.00,,,0.00,meteohub,2013-01-07 14:57:00,
2013-01-07 10:02:00,73.0,69.6,30.17,NE,34,0.0,4.0,89,0.00,,,0.00,meteohub,2013-01-07 15:02:00,
2013-01-07 10:07:00,73.0,70.0,30.16,NE,34,0.0,4.0,90,0.00,,,0.00,meteohub,2013-01-07 15:07:00,
2013-01-07 10:12:00,73.2,70.2,30.16,North,5,0.0,4.0,90,0.00,,,0.00,meteohub,2013-01-07 15:12:00,
2013-01-07 10:17:00,73.6,70.5,30.16,North,0,0.0,4.0,90,0.00,,,0.00,meteohub,2013-01-07 15:17:00,
2013-01-07 10:22:00,73.8,70.0,30.17,West,276,0.0,2.0,88,0.00,,,0.00,meteohub,2013-01-07 15:22:00,
2013-01-07 10:27:00,73.0,68.9,30.17,South,171,0.0,10.0,87,0.00,,,0.00,meteohub,2013-01-07 15:27:00,
2013-01-07 10:32:00,72.1,68.7,30.16,SE,137,0.0,10.0,89,0.00,,,0.00,meteohub,2013-01-07 15:32:00,
2013-01-07 10:37:00,71.8,69.1,30.16,SSE,151,1.0,10.0,91,0.00,,,0.00,meteohub,2013-01-07 15:37:00,
2013-01-07 10:42:00,71.4,68.9,30.16,SE,145,1.0,5.0,92,0.00,,,0.00,meteohub,2013-01-07 15:42:00,
2013-01-07 10:47:00,71.2,68.7,30.17,SE,126,0.0,6.0,92,0.00,,,0.00,meteohub,2013-01-07 15:47:00,
2013-01-07 10:52:00,71.1,68.9,30.16,South,169,0.0,6.0,93,0.00,,,0.00,meteohub,2013-01-07 15:52:00,
2013-01-07 10:57:00,70.9,68.7,30.16,SSW,210,2.0,6.0,93,0.00,,,0.00,meteohub,2013-01-07 15:57:00,
2013-01-07 11:02:00,70.5,68.4,30.16,SSW,201,0.0,5.0,93,0.00,,,0.00,meteohub,2013-01-07 16:02:00,
2013-01-07 11:08:00,70.5,68.7,30.16,SSW,201,0.0,4.0,94,0.00,,,0.00,meteohub,2013-01-07 16:08:00,
2013-01-07 11:13:00,70.3,68.5,30.16,SSE,152,3.0,4.0,94,0.00,,,0.00,meteohub,2013-01-07 16:13:00,
2013-01-07 11:18:00,70.0,68.2,30.16,ESE,123,2.0,5.0,94,0.00,,,0.00,meteohub,2013-01-07 16:18:00,
2013-01-07 11:23:00,69.6,67.8,30.16,SSE,152,2.0,5.0,94,0.00,,,0.00,meteohub,2013-01-07 16:23:00,
2013-01-07 11:28:00,69.4,67.6,30.15,SE,129,0.0,6.0,94,0.00,,,0.00,meteohub,2013-01-07 16:28:00,
2013-01-07 11:33:00,69.4,68.0,30.15,SE,145,2.0,6.0,95,0.00,,,0.00,meteohub,2013-01-07 16:33:00,
2013-01-07 11:38:00,69.4,68.0,30.15,SSE,156,1.0,6.0,95,0.00,,,0.00,meteohub,2013-01-07 16:38:00,
2013-01-07 11:43:00,69.4,68.0,30.15,SE,134,0.0,4.0,95,0.01,,,0.01,meteohub,2013-01-07 16:43:00,
2013-01-07 11:48:00,69.4,68.2,30.15,ESE,122,0.0,3.0,96,0.02,,,0.02,meteohub,2013-01-07 16:48:00,
2013-01-07 11:53:00,69.4,68.0,30.14,ESE,122,1.0,3.0,95,0.02,,,0.02,meteohub,2013-01-07 16:53:00,
2013-01-07 11:58:00,69.3,67.8,30.14,SSW,196,0.0,3.0,95,0.02,,,0.02,meteohub,2013-01-07 16:58:00,
2013-01-07 12:03:00,69.1,67.6,30.14,SSW,196,0.0,3.0,95,0.02,,,0.02,meteohub,2013-01-07 17:03:00,
2013-01-07 12:08:00,69.1,67.8,30.13,SSW,196,0.0,3.0,96,0.02,,,0.02,meteohub,2013-01-07 17:08:00,
2013-01-07 12:13:00,69.3,68.0,30.13,SSW,196,0.0,1.0,96,0.03,,,0.03,meteohub,2013-01-07 17:13:00,
2013-01-07 12:18:00,69.3,68.0,30.13,SSW,196,0.0,0.0,96,0.04,,,0.04,meteohub,2013-01-07 17:18:00,
2013-01-07 12:23:00,69.3,68.0,30.12,SSW,196,0.0,0.0,96,0.05,,,0.05,meteohub,2013-01-07 17:23:00,
2013-01-07 12:28:00,69.3,68.0,30.12,SSW,196,0.0,0.0,96,0.05,,,0.05,meteohub,2013-01-07 17:28:00,
2013-01-07 12:33:00,69.1,67.8,30.12,SSW,196,0.0,0.0,96,0.06,,,0.06,meteohub,2013-01-07 17:33:00,
2013-01-07 12:38:00,68.9,67.5,30.12,SSW,196,0.0,0.0,95,0.06,,,0.06,meteohub,2013-01-07 17:38:00,
2013-01-07 12:43:00,68.7,67.3,30.12,SSW,196,0.0,0.0,95,0.05,,,0.06,meteohub,2013-01-07 17:43:00,
2013-01-07 12:48:00,69.1,67.8,30.12,SE,144,0.0,2.0,96,0.05,,,0.07,meteohub,2013-01-07 17:48:00,
2013-01-07 12:53:00,68.9,67.6,30.12,WSW,249,0.0,2.0,96,0.06,,,0.08,meteohub,2013-01-07 17:53:00,
2013-01-07 12:59:00,68.9,67.6,30.12,NW,324,0.0,2.0,96,0.10,,,0.12,meteohub,2013-01-07 17:59:00,
2013-01-07 13:04:00,68.7,67.3,30.11,WNW,290,2.0,4.0,95,0.10,,,0.12,meteohub,2013-01-07 18:04:00,
2013-01-07 13:09:00,68.7,67.5,30.11,NNW,348,1.0,4.0,96,0.12,,,0.14,meteohub,2013-01-07 18:09:00,
2013-01-07 13:14:00,69.1,68.2,30.11,NNW,340,0.0,4.0,97,0.11,,,0.14,meteohub,2013-01-07 18:14:00,
2013-01-07 13:19:00,69.3,68.4,30.10,NW,326,0.0,4.0,97,0.10,,,0.14,meteohub,2013-01-07 18:19:00,
2013-01-07 13:24:00,69.3,68.0,30.10,NW,322,0.0,3.0,96,0.09,,,0.14,meteohub,2013-01-07 18:24:00,
2013-01-07 13:29:00,69.4,68.5,30.10,North,355,2.0,2.0,97,0.08,,,0.14,meteohub,2013-01-07 18:29:00,
2013-01-07 13:34:00,69.8,68.9,30.10,North,10,3.0,4.0,97,0.08,,,0.14,meteohub,2013-01-07 18:34:00,
2013-01-07 13:39:00,69.8,68.9,30.10,NNE,19,4.0,5.0,97,0.09,,,0.15,meteohub,2013-01-07 18:39:00,
2013-01-07 13:44:00,69.6,68.7,30.10,North,11,2.0,8.0,97,0.11,,,0.17,meteohub,2013-01-07 18:44:00,
2013-01-07 13:49:00,69.6,68.7,30.10,North,0,0.0,8.0,97,0.11,,,0.18,meteohub,2013-01-07 18:49:00,
2013-01-07 13:54:00,69.4,68.2,30.10,NNE,20,1.0,8.0,96,0.11,,,0.19,meteohub,2013-01-07 18:54:00,
2013-01-07 13:59:00,69.4,68.2,30.10,NE,36,3.0,8.0,96,0.08,,,0.20,meteohub,2013-01-07 18:59:00,
2013-01-07 14:04:00,69.3,68.0,30.10,NNE,21,0.0,8.0,96,0.10,,,0.22,meteohub,2013-01-07 19:04:00,
2013-01-07 14:09:00,69.3,68.4,30.10,North,5,0.0,8.0,97,0.10,,,0.24,meteohub,2013-01-07 19:09:00,
2013-01-07 14:14:00,69.4,68.5,30.09,NNE,13,0.0,8.0,97,0.12,,,0.26,meteohub,2013-01-07 19:14:00,
2013-01-07 14:19:00,69.6,68.7,30.09,North,0,0.0,8.0,97,0.12,,,0.26,meteohub,2013-01-07 19:19:00,
2013-01-07 14:24:00,70.0,69.1,30.09,NNW,330,1.0,4.0,97,0.12,,,0.26,meteohub,2013-01-07 19:24:00,
2013-01-07 14:29:00,70.0,69.1,30.09,NNW,343,0.0,4.0,97,0.13,,,0.27,meteohub,2013-01-07 19:29:00,
2013-01-07 14:34:00,70.2,69.3,30.09,NNW,340,0.0,4.0,97,0.13,,,0.27,meteohub,2013-01-07 19:34:00,
2013-01-07 14:39:00,70.2,69.3,30.08,NNW,327,0.0,4.0,97,0.12,,,0.27,meteohub,2013-01-07 19:39:00,
2013-01-07 14:44:00,70.3,69.4,30.09,NW,323,0.0,4.0,97,0.10,,,0.27,meteohub,2013-01-07 19:44:00,
2013-01-07 14:49:00,70.3,69.4,30.08,NW,311,0.0,3.0,97,0.09,,,0.27,meteohub,2013-01-07 19:49:00,
2013-01-07 14:54:00,70.5,69.6,30.08,NW,319,2.0,2.0,97,0.08,,,0.27,meteohub,2013-01-07 19:54:00,
2013-01-07 14:59:00,70.9,70.0,30.08,NW,321,0.0,2.0,97,0.07,,,0.27,meteohub,2013-01-07 19:59:00,
2013-01-07 15:04:00,70.9,70.0,30.08,NW,321,0.0,2.0,97,0.05,,,0.27,meteohub,2013-01-07 20:04:00,
2013-01-07 15:10:00,71.1,69.8,30.08,WNW,299,1.0,2.0,96,0.03,,,0.27,meteohub,2013-01-07 20:10:00,
2013-01-07 15:15:00,71.1,69.8,30.08,WNW,294,0.0,2.0,96,0.01,,,0.27,meteohub,2013-01-07 20:15:00,
2013-01-07 15:19:00,71.1,69.8,30.08,North,355,0.0,3.0,96,0.01,,,0.27,meteohub,2013-01-07 20:19:00,
2013-01-07 15:24:00,71.4,70.2,30.08,North,5,0.0,3.0,96,0.01,,,0.27,meteohub,2013-01-07 20:24:00,
2013-01-07 15:29:00,71.6,70.3,30.08,North,5,0.0,3.0,96,0.00,,,0.27,meteohub,2013-01-07 20:29:00,
2013-01-07 15:34:00,71.6,70.2,30.08,North,350,1.0,1.0,95,0.00,,,0.27,meteohub,2013-01-07 20:34:00,
2013-01-07 15:39:00,71.6,70.2,30.08,North,355,0.0,2.0,95,0.00,,,0.27,meteohub,2013-01-07 20:39:00,
2013-01-07 15:44:00,71.8,70.3,30.09,North,349,0.0,2.0,95,0.00,,,0.27,meteohub,2013-01-07 20:44:00,
2013-01-07 15:49:00,71.8,70.3,30.09,North,5,0.0,3.0,95,0.00,,,0.27,meteohub,2013-01-07 20:49:00,
2013-01-07 15:54:00,71.8,70.3,30.09,NNW,327,0.0,3.0,95,0.00,,,0.27,meteohub,2013-01-07 20:54:00,
2013-01-07 15:59:00,71.8,70.0,30.09,NNW,346,0.0,3.0,94,0.00,,,0.27,meteohub,2013-01-07 20:59:00,
2013-01-07 16:04:00,72.0,70.2,30.09,NNW,341,2.0,2.0,94,0.00,,,0.27,meteohub,2013-01-07 21:04:00,
2013-01-07 16:09:00,72.0,70.2,30.09,North,355,0.0,2.0,94,0.00,,,0.27,meteohub,2013-01-07 21:09:00,
2013-01-07 16:14:00,72.0,70.2,30.09,North,351,0.0,2.0,94,0.00,,,0.27,meteohub,2013-01-07 21:14:00,
2013-01-07 16:19:00,71.8,69.6,30.09,NNE,31,0.0,3.0,93,0.00,,,0.27,meteohub,2013-01-07 21:19:00,
2013-01-07 16:24:00,71.6,69.1,30.09,North,5,0.0,5.0,92,0.00,,,0.27,meteohub,2013-01-07 21:24:00,
2013-01-07 16:30:00,71.4,68.9,30.09,North,5,1.0,5.0,92,0.00,,,0.27,meteohub,2013-01-07 21:30:00,
2013-01-07 16:35:00,71.4,68.9,30.09,NNE,29,0.0,5.0,92,0.00,,,0.27,meteohub,2013-01-07 21:35:00,
2013-01-07 16:40:00,71.4,68.9,30.09,NNE,20,0.0,6.0,92,0.00,,,0.27,meteohub,2013-01-07 21:40:00,
2013-01-07 16:45:00,71.4,68.9,30.09,NNE,15,0.0,6.0,92,0.00,,,0.27,meteohub,2013-01-07 21:45:00,
2013-01-07 16:50:00,71.2,68.7,30.09,North,5,0.0,5.0,92,0.00,,,0.27,meteohub,2013-01-07 21:50:00,
2013-01-07 16:55:00,71.2,68.7,30.09,North,350,1.0,3.0,92,0.00,,,0.27,meteohub,2013-01-07 21:55:00,
2013-01-07 17:00:00,71.2,68.7,30.09,North,9,0.0,3.0,92,0.00,,,0.27,meteohub,2013-01-07 22:00:00,
2013-01-07 17:05:00,71.2,68.7,30.09,NNE,16,0.0,2.0,92,0.00,,,0.27,meteohub,2013-01-07 22:05:00,
2013-01-07 17:10:00,71.2,68.7,30.09,North,0,0.0,6.0,92,0.00,,,0.27,meteohub,2013-01-07 22:10:00,
2013-01-07 17:15:00,71.2,68.7,30.09,NNE,13,0.0,6.0,92,0.00,,,0.27,meteohub,2013-01-07 22:15:00,
2013-01-07 17:20:00,71.2,68.7,30.09,North,5,1.0,6.0,92,0.00,,,0.27,meteohub,2013-01-07 22:20:00,
2013-01-07 17:25:00,71.1,68.4,30.09,North,5,0.0,2.0,91,0.00,,,0.27,meteohub,2013-01-07 22:25:00,
2013-01-07 17:30:00,71.1,68.5,30.09,North,5,0.0,1.0,92,0.00,,,0.27,meteohub,2013-01-07 22:30:00,
2013-01-07 17:35:00,71.1,68.9,30.10,North,5,0.0,1.0,93,0.00,,,0.27,meteohub,2013-01-07 22:35:00,
2013-01-07 17:40:00,71.1,68.9,30.10,North,5,0.0,0.0,93,0.00,,,0.27,meteohub,2013-01-07 22:40:00,
2013-01-07 17:45:00,71.1,68.9,30.10,North,5,0.0,0.0,93,0.00,,,0.27,meteohub,2013-01-07 22:45:00,
2013-01-07 17:50:00,70.7,68.5,30.11,North,0,0.0,1.0,93,0.00,,,0.27,meteohub,2013-01-07 22:50:00,
2013-01-07 17:55:00,70.5,68.4,30.11,North,11,0.0,2.0,93,0.00,,,0.27,meteohub,2013-01-07 22:55:00,
2013-01-07 18:00:00,70.5,68.4,30.11,North,10,0.0,2.0,93,0.00,,,0.27,meteohub,2013-01-07 23:00:00,
2013-01-07 18:05:00,70.5,68.7,30.11,North,10,0.0,2.0,94,0.00,,,0.27,meteohub,2013-01-07 23:05:00,
2013-01-07 18:10:00,70.5,68.4,30.11,North,10,0.0,1.0,93,0.00,,,0.27,meteohub,2013-01-07 23:10:00,
2013-01-07 18:15:00,70.3,68.5,30.11,North,10,0.0,0.0,94,0.00,,,0.27,meteohub,2013-01-07 23:15:00,
2013-01-07 18:21:00,70.3,68.5,30.11,North,10,0.0,0.0,94,0.00,,,0.27,meteohub,2013-01-07 23:21:00,
2013-01-07 18:26:00,70.3,68.5,30.11,North,10,0.0,0.0,94,0.00,,,0.27,meteohub,2013-01-07 23:26:00,
2013-01-07 18:31:00,70.3,68.5,30.11,North,10,0.0,0.0,94,0.00,,,0.27,meteohub,2013-01-07 23:31:00,
2013-01-07 18:36:00,70.3,68.5,30.11,North,10,0.0,0.0,94,0.00,,,0.27,meteohub,2013-01-07 23:36:00,
2013-01-07 18:41:00,70.3,68.9,30.11,North,10,0.0,0.0,95,0.00,,,0.27,meteohub,2013-01-07 23:41:00,
2013-01-07 18:46:00,70.3,68.5,30.12,North,10,0.0,0.0,94,0.00,,,0.27,meteohub,2013-01-07 23:46:00,
2013-01-07 18:51:00,70.2,68.7,30.12,North,10,0.0,0.0,95,0.00,,,0.27,meteohub,2013-01-07 23:51:00,
2013-01-07 18:56:00,70.2,68.7,30.12,North,10,0.0,0.0,95,0.00,,,0.27,meteohub,2013-01-07 23:56:00,
2013-01-07 19:01:00,70.2,68.7,30.12,North,10,0.0,0.0,95,0.00,,,0.27,meteohub,2013-01-08 00:01:00,
2013-01-07 19:06:00,70.2,68.7,30.12,North,10,0.0,0.0,95,0.00,,,0.00,meteohub,2013-01-08 00:06:00,
2013-01-07 19:11:00,70.2,68.7,30.12,North,10,0.0,0.0,95,0.00,,,0.00,meteohub,2013-01-08 00:11:00,
2013-01-07 19:16:00,70.2,68.7,30.12,North,10,0.0,0.0,95,0.00,,,0.00,meteohub,2013-01-08 00:16:00,
2013-01-07 19:21:00,70.2,68.7,30.12,North,10,0.0,0.0,95,0.00,,,0.00,meteohub,2013-01-08 00:21:00,
2013-01-07 19:26:00,70.2,68.7,30.12,North,10,0.0,0.0,95,0.00,,,0.00,meteohub,2013-01-08 00:26:00,
2013-01-07 19:31:00,70.0,68.5,30.13,North,10,0.0,0.0,95,0.00,,,0.00,meteohub,2013-01-08 00:31:00,
2013-01-07 19:36:00,70.0,68.7,30.13,North,10,0.0,0.0,96,0.00,,,0.00,meteohub,2013-01-08 00:36:00,
2013-01-07 19:41:00,70.2,68.9,30.13,North,10,0.0,0.0,96,0.00,,,0.00,meteohub,2013-01-08 00:41:00,
2013-01-07 19:46:00,70.2,68.9,30.13,North,10,0.0,1.0,96,0.00,,,0.00,meteohub,2013-01-08 00:46:00,
2013-01-07 19:51:00,70.2,68.9,30.13,North,10,0.0,1.0,96,0.00,,,0.00,meteohub,2013-01-08 00:51:00,
2013-01-07 19:56:00,70.2,68.7,30.13,North,10,0.0,1.0,95,0.00,,,0.00,meteohub,2013-01-08 00:56:00,
2013-01-07 20:01:00,70.2,68.7,30.13,North,9,0.0,1.0,95,0.00,,,0.00,meteohub,2013-01-08 01:01:00,
2013-01-07 20:06:00,70.2,68.7,30.13,North,9,0.0,1.0,95,0.00,,,0.00,meteohub,2013-01-08 01:06:00,
2013-01-07 20:11:00,70.2,68.7,30.13,North,9,0.0,1.0,95,0.00,,,0.00,meteohub,2013-01-08 01:11:00,
2013-01-07 20:16:00,70.2,68.7,30.13,North,9,0.0,1.0,95,0.00,,,0.00,meteohub,2013-01-08 01:16:00,
2013-01-07 20:22:00,70.2,68.7,30.13,North,9,0.0,1.0,95,0.00,,,0.00,meteohub,2013-01-08 01:22:00,
2013-01-07 20:27:00,70.2,68.7,30.13,North,9,0.0,1.0,95,0.00,,,0.00,meteohub,2013-01-08 01:27:00,
2013-01-07 20:32:00,70.0,68.5,30.14,North,9,0.0,1.0,95,0.00,,,0.00,meteohub,2013-01-08 01:32:00,
2013-01-07 20:37:00,70.0,68.5,30.14,North,9,0.0,1.0,95,0.00,,,0.00,meteohub,2013-01-08 01:37:00,
2013-01-07 20:42:00,70.0,68.7,30.14,North,9,0.0,0.0,96,0.00,,,0.00,meteohub,2013-01-08 01:42:00,
2013-01-07 20:47:00,70.0,68.5,30.13,North,9,0.0,0.0,95,0.00,,,0.00,meteohub,2013-01-08 01:47:00,
2013-01-07 20:52:00,69.8,68.5,30.13,North,9,0.0,0.0,96,0.00,,,0.00,meteohub,2013-01-08 01:52:00,
2013-01-07 20:57:00,69.6,68.4,30.14,North,9,0.0,0.0,96,0.00,,,0.00,meteohub,2013-01-08 01:57:00,
2013-01-07 21:02:00,69.6,68.4,30.14,North,9,0.0,0.0,96,0.00,,,0.00,meteohub,2013-01-08 02:02:00,
2013-01-07 21:07:00,69.4,68.0,30.14,North,9,0.0,0.0,95,0.00,,,0.00,meteohub,2013-01-08 02:07:00,
2013-01-07 21:12:00,69.4,68.2,30.14,North,9,0.0,0.0,96,0.00,,,0.00,meteohub,2013-01-08 02:12:00,
2013-01-07 21:17:00,69.4,68.2,30.14,North,9,0.0,0.0,96,0.00,,,0.00,meteohub,2013-01-08 02:17:00,
2013-01-07 21:22:00,69.3,68.0,30.13,North,9,0.0,0.0,96,0.00,,,0.00,meteohub,2013-01-08 02:22:00,
2013-01-07 21:27:00,69.3,68.0,30.14,North,9,0.0,0.0,96,0.00,,,0.00,meteohub,2013-01-08 02:27:00,
2013-01-07 21:32:00,69.3,68.0,30.13,North,9,0.0,0.0,96,0.00,,,0.00,meteohub,2013-01-08 02:32:00,
2013-01-07 21:37:00,69.1,67.8,30.13,North,9,0.0,0.0,96,0.00,,,0.00,meteohub,2013-01-08 02:37:00,
2013-01-07 21:42:00,68.9,67.6,30.13,North,9,0.0,0.0,96,0.00,,,0.00,meteohub,2013-01-08 02:42:00,
2013-01-07 21:47:00,68.7,67.5,30.13,North,9,0.0,0.0,96,0.00,,,0.00,meteohub,2013-01-08 02:47:00,
2013-01-07 21:52:00,68.7,67.5,30.14,North,9,0.0,0.0,96,0.00,,,0.00,meteohub,2013-01-08 02:52:00,
2013-01-07 21:57:00,69.3,68.7,30.14,East,94,1.0,2.0,98,0.00,,,0.00,meteohub,2013-01-08 02:57:00,
2013-01-07 22:02:00,70.0,69.4,30.14,ENE,62,3.0,5.0,98,0.00,,,0.00,meteohub,2013-01-08 03:02:00,
2013-01-07 22:07:00,70.2,68.9,30.13,NE,37,0.0,5.0,96,0.00,,,0.00,meteohub,2013-01-08 03:07:00,
2013-01-07 22:12:00,70.5,69.1,30.13,NNE,26,1.0,5.0,95,0.00,,,0.00,meteohub,2013-01-08 03:12:00,
2013-01-07 22:17:00,70.7,68.9,30.13,ENE,65,0.0,5.0,94,0.00,,,0.00,meteohub,2013-01-08 03:17:00,
2013-01-07 22:22:00,70.9,69.1,30.13,ENE,65,0.0,5.0,94,0.00,,,0.00,meteohub,2013-01-08 03:22:00,
2013-01-07 22:27:00,70.9,69.1,30.13,ENE,65,0.0,3.0,94,0.00,,,0.00,meteohub,2013-01-08 03:27:00,
2013-01-07 22:32:00,70.9,68.7,30.13,ESE,102,1.0,2.0,93,0.00,,,0.00,meteohub,2013-01-08 03:32:00,
2013-01-07 22:37:00,71.1,68.9,30.13,ENE,68,3.0,5.0,93,0.00,,,0.00,meteohub,2013-01-08 03:37:00,
2013-01-07 22:42:00,71.4,69.3,30.13,NE,38,0.0,5.0,93,0.00,,,0.00,meteohub,2013-01-08 03:42:00,
2013-01-07 22:47:00,71.8,69.6,30.13,East,80,0.0,5.0,93,0.00,,,0.00,meteohub,2013-01-08 03:47:00,
2013-01-07 22:52:00,72.1,70.0,30.12,East,84,0.0,5.0,93,0.00,,,0.00,meteohub,2013-01-08 03:52:00,
2013-01-07 22:57:00,72.1,70.0,30.12,NE,40,2.0,5.0,93,0.00,,,0.00,meteohub,2013-01-08 03:57:00,
2013-01-07 23:02:00,72.3,69.8,30.12,ENE,59,0.0,5.0,92,0.00,,,0.00,meteohub,2013-01-08 04:02:00,
2013-01-07 23:07:00,72.3,69.8,30.12,NE,48,0.0,2.0,92,0.00,,,0.00,meteohub,2013-01-08 04:07:00,
2013-01-07 23:12:00,72.5,70.0,30.12,East,88,0.0,2.0,92,0.00,,,0.00,meteohub,2013-01-08 04:12:00,
2013-01-07 23:17:00,72.7,70.2,30.12,East,84,0.0,2.0,92,0.00,,,0.00,meteohub,2013-01-08 04:17:00,
2013-01-07 23:22:00,72.5,69.4,30.12,ENE,68,0.0,3.0,90,0.00,,,0.00,meteohub,2013-01-08 04:22:00,
2013-01-07 23:27:00,72.7,69.6,30.12,East,101,0.0,5.0,90,0.00,,,0.00,meteohub,2013-01-08 04:27:00,
2013-01-07 23:32:00,72.9,69.8,30.12,East,86,0.0,5.0,90,0.00,,,0.00,meteohub,2013-01-08 04:32:00,
2013-01-07 23:37:00,72.9,69.8,30.12,SSE,151,0.0,5.0,90,0.00,,,0.00,meteohub,2013-01-08 04:37:00,
2013-01-07 23:42:00,73.0,70.0,30.12,East,90,0.0,3.0,90,0.00,,,0.00,meteohub,2013-01-08 04:42:00,
2013-01-07 23:47:00,73.0,70.0,30.12,ENE,59,1.0,3.0,90,0.00,,,0.00,meteohub,2013-01-08 04:47:00,
2013-01-07 23:52:00,73.0,70.0,30.11,East,85,0.0,3.0,90,0.00,,,0.00,meteohub,2013-01-08 04:52:00,
2013-01-07 23:57:00,73.0,70.0,30.12,East,80,0.0,4.0,90,0.00,,,0.00,meteohub,2013-01-08 04:57:00,